Regional Weather Roundup
Issued by NWS Goodland, KS

Home | Current Version | Previous Version | Graphics & Text | Print | Product List | Glossary On
Versions: 1 2 3 4 5 6 7 8 9 10 11 12 13 14 15 16 17 18 19 20 21 22 23 24 25 26 27 28 29 30 31 32 33 34 35 36 37 38 39 40 41 42 43 44 45 46 47 48 49 50
000
ASUS43 KGLD 032059
RWRGLD

GOODLAND FORECAST AREA HOURLY WEATHER ROUNDUP
NATIONAL WEATHER SERVICE GOODLAND KS
200 PM MST TUE MAR 03 2015

...OFFICIAL OBSERVATIONS...

CITY           SKY/WX    TMP DP  RH WIND       PRES   REMARKS
GOODLAND KS    CLOUDY    29  15  56 N15       29.89F WCI  18
HILL CITY KS   CLOUDY    37  16  42 N16       29.93R
IMPERIAL NEB     N/A     30  10  43 N22       29.91F WCI  17
MCCOOK NEB     MOSUNNY   36  11  35 N15G23    29.92F
AKRON CO       MOSUNNY   26  11  52 NE13      29.85F WCI  15
BURLINGTON CO  CLOUDY    26  15  63 N15       29.88F WCI  14
LIMON CO       NOT AVBL
$$

...UNOFFICIAL OBSERVATIONS...

CITY           SKY/WX    TMP DP  RH WIND       PRES   REMARKS
COLBY KS       PTSUNNY   32  19  59 N16G23    29.91S
GOVE KS          N/A     35  32  89 MISG        N/A
LENORA KS        N/A     33  32  96 S15         N/A
NORTON KS      SUNNY     36  10  35 N17G23    29.90F
SHARON SPRINGS   N/A     29  23  77 NE14G22     N/A  WCI  18
KIT CARSON CO    N/A     26  20  78 MISG        N/A
YUMA CO          N/A     28  12  52 N15G22      N/A  WCI  16
$$


USA.gov is the U.S. government's official web portal to all federal, state and local government web resources and services.